CZ-6A DEB, 54522

Orbit data source: Space-Track

CZ-6A DEB, 54522 is space debris in SSO originally from a launch on Fri, 11 Nov 2022 UTC launched from the Taiyaun Space Center, China (TSC). Debris objects in space refer to the collection of defunct objects orbiting the Earth. Examples of debris include non-operational satellites, rocket bodies, and fragments generated from explosions, collisions, or faulty payload assembly.

Loading next visibility...
Identifier
54522, 2022-151KA
Orbit
SSO
Country
Flag of CNCN / PRC
Related business
Manufacturer
SAST
Mission
Spacecraft
Bus & Motor
Unknown
Mass
Unknown
Launch date (UTC)
2022-11-11 (4 years ago)
Launch vehicle
Unknown
Launch site
Taiyaun Space Center, China (TSC)
Object type
Payload
Rocket body
Debris
Shape & HBR
Unknown shape, 0.1 m
Radar Cross Section
Small (<0.1 m²)

Expand to show TLE details & history
Last TLE update: 2 days ago

TLE from 2 days ago
0 CZ-6A DEB
1 54522U 22151KA  26171.44318065  .00000698  00000-0  46180-3 0  9992
2 54522  98.8868 152.5852 0109005  59.4295 301.7572 14.01913847184099
Epoch: 2026-06-20T10:38Z
TLE epoch observation values (Epoch: 2026-06-20T10:38:10.808Z)
Latitude
-0.00001°
Longitude
84.38244°
Altitude
848.999 km
Speed
7.449 km/s
True Right ascension
10h 10m 20s
True Declination
0° 00' 00"
Sunlit
Object was in daylight at epoch
Visualization orbit readout
Latitude
Unknown
Longitude
Unknown
Altitude
Unknown
Speed
Unknown
Apparent Right ascension
Unknown
Apparent Declination
Unknown
Sunlit
N/A
Visualization observer readout
Local Sidereal Time
21:35:17
Azimuth
Unknown
Elevation
Unknown
Doppler factor
Unknown
Orbital elements
Apogee altitude
963.531 km
Perigee altitude
805.201 km
Semi-major axis
7,262.503 km
Eccentricity
0.0109
Inclination
98.8868°
RAAN
152.5852°
Arg. of periapsis
59.4295°
True anomaly
300.6875°
Mean anomaly
301.7572°
Eccentric anomaly
301.22311°
Mean motion
3.50682 °/min
Orbital period
102.66 mins
BSTAR
0.0004618
Loading maneuver chart data...
Computing Atmospheric mass density...
Loading historical data...
Loading historical data...
Loading historical data...
Loading historical data...
Loading historical data...
Loading historical data...
Loading historical data...

Documentation

Showing up to 5 results
|